Location: Rio de Janeiro
(22.9068°S, 43.1729°W)
Time: 10:07:28
(UTC-03:00)

Envisat - Visible Passes

Search period start: 05 December 2023 00:00
Search period end: 15 December 2023 00:00
Orbit: 762 x 764 km, 98.3° (Epoch: 04 December)

Date Brightness Start Highest point End Pass type
(mag) Time Alt. Az. Time Alt. Az. Time Alt. Az.
05 Dec 4.1 02:22:35 35° ENE 02:23:50 41° ESE 02:28:37 10° S visible
05 Dec 4.6 04:02:45 14° W 04:02:49 14° W 04:05:29 10° WSW visible
06 Dec 5.5 01:44:54 13° E 01:46:53 16° ESE 01:49:55 10° SSE visible
06 Dec 3.4 03:25:04 37° WNW 03:25:27 38° W 03:30:11 10° SSW visible
07 Dec 3.0 02:47:24 62° NNE 02:48:13 80° ESE 02:53:21 10° S visible
08 Dec 4.7 02:09:43 26° ENE 02:11:09 30° ESE 02:15:33 10° SSE visible
08 Dec 4.3 03:49:53 20° W 03:50:00 20° W 03:53:42 10° SW visible
09 Dec 5.8 01:32:41 10° E 01:34:16 11° ESE 01:35:51 10° SE visible
09 Dec 3.1 03:12:12 51° WNW 03:12:41 53° W 03:17:41 10° SSW visible
10 Dec 3.5 02:34:32 48° ENE 02:35:31 57° ESE 02:40:32 10° S visible
11 Dec 5.1 01:56:52 19° E 01:58:30 22° ESE 02:02:21 10° SSE visible
11 Dec 3.9 03:37:02 27° WNW 03:37:13 28° W 03:41:33 10° SW visible
12 Dec 2.8 02:59:22 67° NNW 02:59:56 75° WNW 03:05:04 10° SSW visible
13 Dec 4.1 02:21:43 36° ENE 02:22:48 41° ESE 02:27:35 10° S visible
13 Dec 4.6 04:01:52 14° W 04:01:52 14° W 04:04:30 10° WSW visible
14 Dec 5.5 01:44:02 13° E 01:45:51 16° ESE 01:48:53 10° SSE visible
14 Dec 3.4 03:24:12 38° WNW 03:24:26 38° W 03:29:11 10° SSW visible
